GW0787 Weather Reports


Display with metric or nautical units.
time (UTC)temp
F
wind
direction
speed
MPH
gust
MPH
rain 1hr
in
rain 24hr
in
rain mn
in
humidity
%
barometer
mb
20260903233025 56 163 0.0 5.0 0.33 0.38 0.34 84 1008.9
20260903231525 60 148 0.0 2.0 0.21 0.26 0.22 72 1009.1
20260903230036 63 108 6.0 10.0 0.00 0.05 0.01 50 1008.8
20260903224523 65 31 3.0 8.0 0.00 0.05 0.01 47 1008.5
20260903223021 65 38 3.0 11.0 0.00 0.05 0.01 48 1008.6
20260903221521 69 108 1.0 9.0 0.00 0.05 0.01 40 1008.8
20260903220020 69 268 4.0 10.0 0.00 0.05 0.01 39 1008.7
20260903214516 67 224 5.0 13.0 0.00 0.05 0.01 43 1008.5
20260903213017 66 221 4.0 8.0 0.00 0.05 0.01 45 1008.6
20260903211518 65 215 1.0 4.0 0.00 0.05 0.01 49 1008.7
20260903210012 64 217 2.0 6.0 0.00 0.05 0.01 53 1008.6
20260903204515 66 253 4.0 7.0 0.00 0.05 0.01 47 1008.8
20260903203025 65 196 1.0 4.0 0.00 0.05 0.01 46 1008.8
20260903201510 64 176 1.0 4.0 0.00 0.05 0.01 47 1008.9
20260903200011 66 216 0.0 7.0 0.00 0.05 0.01 46 1009.0
20260903194505 64 232 2.0 7.0 0.00 0.05 0.01 49 1009.1
20260903193001 63 303 2.0 4.0 0.00 0.05 0.01 48 1009.4
20260903191604 63 179 1.0 3.0 0.00 0.05 0.01 56 1009.5
20260903190053 61 220 2.0 5.0 0.00 0.05 0.01 57 1009.5
20260903184550 59 168 0.0 1.0 0.00 0.05 0.01 70 1009.6
20260903183049 58 166 0.0 1.0 0.00 0.05 0.01 76 1009.7
20260903181542 57 166 0.0 1.0 0.00 0.05 0.01 79 1009.8
20260903180041 57 166 0.0 3.0 0.00 0.05 0.01 78 1009.7
20260903174540 56 166 0.0 3.0 0.00 0.06 0.01 75 1009.7
20260903173038 55 208 1.0 3.0 0.00 0.06 0.01 76 1009.8
20260903171545 52 181 1.0 2.0 0.00 0.06 0.01 91 1009.9
20260903170030 50 204 0.0 3.0 0.00 0.06 0.01 90 1009.9
20260903164532 48 157 1.0 2.0 0.00 0.06 0.01 91 1010.0
20260903163028 46 157 0.0 0.0 0.00 0.06 0.01 90 1010.0
20260903161529 44 157 0.0 0.0 0.00 0.06 0.01 90 1010.1
20260903160032 42 157 0.0 0.0 0.00 0.06 0.01 90 1010.1
20260903154533 41 157 0.0 0.0 0.00 0.06 0.01 90 1010.0
20260903153024 40 157 0.0 0.0 0.00 0.06 0.01 91 1010.0
20260903151523 39 157 0.0 0.0 0.00 0.06 0.01 91 1010.0
20260903150026 39 157 0.0 0.0 0.00 0.06 0.01 91 1009.9
20260903144539 39 156 0.0 0.0 0.00 0.06 0.01 91 1009.9
20260903143032 39 157 0.0 0.0 0.00 0.06 0.01 91 1009.9
20260903141519 39 157 0.0 0.0 0.00 0.06 0.01 91 1009.9
20260903140022 39 157 0.0 0.0 0.00 0.06 0.01 91 1009.8
20260903134517 39 157 0.0 0.0 0.00 0.06 0.01 91 1009.9
20260903133014 39 157 0.0 0.0 0.00 0.06 0.01 91 1009.7
20260903131511 40 157 0.0 1.0 0.00 0.06 0.01 91 1009.5
20260903130008 40 156 0.0 0.0 0.00 0.06 0.01 91 1009.3
20260903124505 41 157 0.0 0.0 0.00 0.06 0.01 91 1009.1
20260903123002 41 156 0.0 1.0 0.00 0.06 0.01 91 1009.0
20260903121611 42 157 0.0 1.0 0.00 0.06 0.01 91 1009.0
20260903120104 42 157 0.0 1.0 0.00 0.06 0.01 91 1008.8
20260903114556 43 157 0.0 2.0 0.00 0.06 0.01 91 1008.9
20260903113131 44 157 0.0 0.0 0.00 0.06 0.01 91 1008.9
20260903111550 44 157 0.0 0.0 0.00 0.06 0.01 91 1008.9
20260903110048 45 156 0.0 3.0 0.00 0.06 0.01 91 1008.7
20260903104557 46 156 0.0 0.0 0.00 0.06 0.01 91 1008.6
20260903103043 46 156 0.0 2.0 0.00 0.06 0.01 91 1008.6
20260903101538 47 94 0.0 3.0 0.00 0.06 0.01 91 1008.5
20260903100039 48 45 0.0 2.0 0.00 0.06 0.01 90 1008.3
20260903094546 49 176 0.0 3.0 0.00 0.06 0.01 90 1008.0
20260903093033 49 185 0.0 4.0 0.00 0.06 0.01 90 1008.0
20260903091542 50 150 0.0 2.0 0.00 0.06 0.01 90 1007.8
20260903090026 50 147 1.0 5.0 0.00 0.06 0.01 90 1007.8
20260903084524 50 216 0.0 3.0 0.00 0.06 0.01 90 1008.0
20260903083023 50 154 1.0 3.0 0.00 0.06 0.01 90 1008.0
20260903081524 50 218 1.0 3.0 0.00 0.06 0.01 90 1008.0
20260903080019 51 175 0.0 1.0 0.01 0.06 0.01 90 1007.9
20260903074517 51 176 0.0 1.0 0.01 0.06 0.01 90 1007.6
20260903073028 51 176 0.0 2.0 0.02 0.06 0.01 90 1007.6
20260903071520 51 177 0.0 3.0 0.02 0.06 0.01 90 1007.3
20260903070012 52 181 0.0 1.0 0.02 0.05 0.00 90 1007.3
20260903064509 52 181 0.0 2.0 0.02 0.05 0.05 90 1007.3
20260903063011 52 129 1.0 4.0 0.01 0.04 0.04 89 1007.2
20260903061509 52 198 0.0 3.0 0.01 0.04 0.04 89 1007.2
20260903060008 53 198 0.0 0.0 0.00 0.03 0.03 89 1006.9
20260903054507 53 199 0.0 2.0 0.00 0.03 0.03 89 1006.9
20260903053014 53 106 1.0 5.0 0.00 0.03 0.03 88 1006.8
20260903051507 53 142 0.0 9.0 0.00 0.03 0.03 88 1006.8
20260903050006 53 112 2.0 4.0 0.00 0.03 0.03 89 1006.7
20260903044506 53 190 0.0 2.0 0.00 0.03 0.03 90 1006.7
20260903043005 53 190 0.0 1.0 0.00 0.03 0.03 90 1006.6
20260903041508 53 190 0.0 1.0 0.00 0.03 0.03 89 1006.4
20260903040012 54 191 0.0 0.0 0.00 0.03 0.03 89 1006.2
20260903034504 54 190 0.0 1.0 0.00 0.04 0.03 89 1006.0
20260903033006 54 190 0.0 0.0 0.00 0.04 0.03 89 1005.8
20260903031502 54 190 0.0 0.0 0.00 0.04 0.03 89 1005.7
20260903030002 54 190 0.0 2.0 0.01 0.04 0.03 88 1005.4
20260903024501 55 114 1.0 4.0 0.01 0.17 0.03 88 1005.0
20260903023100 55 130 0.0 3.0 0.02 0.17 0.03 88 1004.9
20260903021600 55 127 0.0 2.0 0.02 0.17 0.03 87 1005.1
20260903020059 57 129 0.0 6.0 0.01 0.16 0.02 83 1005.6
20260903014558 58 156 0.0 3.0 0.01 0.16 0.02 77 1005.4
20260903014500 58 156 0.0 3.0 0.01 0.16 0.02 77 1005.4
20260903013108 61 172 0.0 11.0 0.00 0.15 0.01 62 1004.9
20260903011558 62 318 0.0 11.0 0.00 0.15 0.01 55 1004.6
20260903010056 63 154 2.0 8.0 0.00 0.15 0.01 51 1004.2
20260903004559 63 208 5.0 15.0 0.00 0.15 0.01 51 1003.9
20260903003056 64 219 4.0 17.0 0.00 0.15 0.01 48 1003.9
20260903001552 65 239 4.0 10.0 0.00 0.15 0.01 50 1003.7
20260903000051 65 125 2.0 8.0 0.00 0.15 0.01 49 1003.5
20260902234607 65 120 0.0 6.0 0.00 0.15 0.01 54 1003.4